This is the latest recevied weather packets stored in our database for station/object KD4EG. If no packets are shown the sender has not sent any weather packets the latest 10 day(s).
| Time | Temp. | Humidity | Pressure | Rain* | Wind** | Luminosity | Snow |
|---|---|---|---|---|---|---|---|
| 1777814630 | 8.33° C | 51% | 1022 hPa | 0 mm | - | 474 W/m² | - |
| 1777814327 | 7.78° C | 50% | 1021.9 hPa | 0 mm | - | 444 W/m² | - |
| 1777814024 | 8.33° C | 50% | 1022 hPa | 0 mm | - | 428 W/m² | - |
| 1777813721 | 7.78° C | 53% | 1021.7 hPa | 0 mm | - | 368 W/m² | - |
| 1777813419 | 7.78° C | 52% | 1021.7 hPa | 0 mm | - | 342 W/m² | - |
| 1777813116 | 7.78° C | 52% | 1021.7 hPa | 0 mm | - | 343 W/m² | - |
| 1777812814 | 7.22° C | 54% | 1021.7 hPa | 0 mm | - | 323 W/m² | - |
| 1777812510 | 7.22° C | 54% | 1021.9 hPa | 0 mm | - | 303 W/m² | - |
| 1777812208 | 7.22° C | 55% | 1021.7 hPa | 0 mm | - | 261 W/m² | - |
| 1777811906 | 7.22° C | 55% | 1021.6 hPa | 0 mm | - | 250 W/m² | - |
| 1777811605 | 7.22° C | 55% | 1021.5 hPa | 0 mm | - | 245 W/m² | - |
| 1777811299 | 7.22° C | 56% | 1021.7 hPa | 0 mm | - | 234 W/m² | - |
| 1777810997 | 6.67° C | 56% | 1021.6 hPa | 0 mm | - | 216 W/m² | - |
| 1777810694 | 6.67° C | 57% | 1021.7 hPa | 0 mm | - | 200 W/m² | - |
| 1777810391 | 6.67° C | 59% | 1021.6 hPa | 0 mm | - | 58 W/m² | - |
| 1777810086 | 6.11° C | 59% | 1021.5 hPa | 0 mm | - | 57 W/m² | - |
| 1777809784 | 6.11° C | 62% | 1021.4 hPa | 0 mm | - | 39 W/m² | - |
| 1777809481 | 5.56° C | 63% | 1021.4 hPa | 0 mm | - | 38 W/m² | - |
| 1777809179 | 5.56° C | 69% | 1021.2 hPa | 0 mm | - | 38 W/m² | - |
| 1777808877 | 5.56° C | 72% | 1021.2 hPa | 0 mm | - | 35 W/m² | - |
| 1777808573 | 5° C | 72% | 1021.5 hPa | 0 mm | - | 36 W/m² | - |
| 1777808270 | 4.44° C | 74% | 1021.1 hPa | 0 mm | - | 33 W/m² | - |
| 1777807969 | 4.44° C | 75% | 1021 hPa | 0 mm | - | 31 W/m² | - |
| 1777807666 | 3.89° C | 76% | 1021 hPa | 0 mm | - | 30 W/m² | - |
| 1777807364 | 3.33° C | 79% | 1021 hPa | 0 mm | - | 28 W/m² | - |
* Rain latest hour (hover to see other rain measurements)
** Current wind speed in m/s (hover to see current wind gust speed)